owner,sensor,date,latitude,longitude,air_pressure(mBar),qcFlag 
TABS,ioos:station:wmo:42044:1,2010-03-25T07:00:00Z,26.1914,-97.0507,1014.98,11111222 
TABS,ioos:station:wmo:42044:1,2010-03-25T07:30:00Z,26.1914,-97.0507,1013.6,11111222 
TABS,ioos:station:wmo:42044:1,2010-03-25T08:00:00Z,26.1914,-97.0507,1013.82,11111222 
TABS,ioos:station:wmo:42044:1,2010-03-25T08:30:00Z,26.1914,-97.0507,1012.37,11111222 
TABS,ioos:station:wmo:42044:1,2010-03-25T09:00:00Z,26.1914,-97.0507,1012.51,11111222 
TABS,ioos:station:wmo:42044:1,2010-03-25T09:30:00Z,26.1914,-97.0507,1012.73,11111222 
TABS,ioos:station:wmo:42044:1,2010-03-25T10:00:00Z,26.1914,-97.0507,1013.07,11111222 
TABS,ioos:station:wmo:42044:1,2010-03-25T10:30:00Z,26.1914,-97.0507,1012.27,11111222 
TABS,ioos:station:wmo:42044:1,2010-03-25T11:00:00Z,26.1914,-97.0507,1011.78,11111222 
TABS,ioos:station:wmo:42044:1,2010-03-25T11:30:00Z,26.1914,-97.0507,1012.3,11111222 
TABS,ioos:station:wmo:42044:1,2010-03-25T12:00:00Z,26.1914,-97.0507,1012.43,11111222 
TABS,ioos:station:wmo:42044:1,2010-03-25T12:30:00Z,26.1914,-97.0507,1013.71,11111222 
TABS,ioos:station:wmo:42044:1,2010-03-25T13:00:00Z,26.1914,-97.0507,1014.35,11111222 
TABS,ioos:station:wmo:42044:1,2010-03-25T13:30:00Z,26.1914,-97.0507,1014.98,11111222 
TABS,ioos:station:wmo:42044:1,2010-03-25T14:00:00Z,26.1914,-97.0507,1013.53,11111222 
TABS,ioos:station:wmo:42044:1,2010-03-25T14:30:00Z,26.1914,-97.0507,1015.53,11111222 
TABS,ioos:station:wmo:42044:1,2010-03-25T15:00:00Z,26.1914,-97.0507,1020.2,11111222 
TABS,ioos:station:wmo:42044:1,2010-03-25T15:30:00Z,26.1914,-97.0507,1022.22,11111222 
TABS,ioos:station:wmo:42044:1,2010-03-25T16:00:00Z,26.1914,-97.0507,1029.92,11111222 
TABS,ioos:station:wmo:42044:1,2010-03-25T16:30:00Z,26.1914,-97.0507,1028.27,11111222 
TABS,ioos:station:wmo:42044:1,2010-03-25T17:00:00Z,26.1914,-97.0507,1030.35,11111222 
TABS,ioos:station:wmo:42044:1,2010-03-25T17:30:00Z,26.1914,-97.0507,1028.42,11111222 
TABS,ioos:station:wmo:42044:1,2010-03-25T18:00:00Z,26.1914,-97.0507,1024.54,11111222 
TABS,ioos:station:wmo:42044:1,2010-03-25T18:30:00Z,26.1914,-97.0507,1020.6,11111222 
TABS,ioos:station:wmo:42044:1,2010-03-25T19:00:00Z,26.1914,-97.0507,1016.76,11111222 
TABS,ioos:station:wmo:42044:1,2010-03-25T19:30:00Z,26.1914,-97.0507,1015.99,11111222 
TABS,ioos:station:wmo:42044:1,2010-03-25T20:00:00Z,26.1914,-97.0507,1015.57,11111222 
TABS,ioos:station:wmo:42044:1,2010-03-25T20:30:00Z,26.1914,-97.0507,1015.29,11111222 
TABS,ioos:station:wmo:42044:1,2010-03-25T21:00:00Z,26.1914,-97.0507,1014.99,11111222 
TABS,ioos:station:wmo:42044:1,2010-03-25T21:30:00Z,26.1914,-97.0507,1014.83,11111222 
TABS,ioos:station:wmo:42044:1,2010-03-25T22:00:00Z,26.1914,-97.0507,1014.58,11111222 
TABS,ioos:station:wmo:42044:1,2010-03-25T22:30:00Z,26.1914,-97.0507,1014.28,11111222 
TABS,ioos:station:wmo:42044:1,2010-03-25T23:00:00Z,26.1914,-97.0507,1014.69,11111222 
TABS,ioos:station:wmo:42044:1,2010-03-25T23:30:00Z,26.1914,-97.0507,1014.65,11111222 
TABS,ioos:station:wmo:42044:1,2010-03-26T00:00:00Z,26.1914,-97.0507,1014.62,11111222 
TABS,ioos:station:wmo:42044:1,2010-03-26T00:30:00Z,26.1914,-97.0507,1014.86,11111222 
TABS,ioos:station:wmo:42044:1,2010-03-26T01:00:00Z,26.1914,-97.0507,1015.25,11111222 
TABS,ioos:station:wmo:42044:1,2010-03-26T01:30:00Z,26.1914,-97.0507,1015.56,11111222 
TABS,ioos:station:wmo:42044:1,2010-03-26T02:00:00Z,26.1914,-97.0507,1015.99,11111222 
TABS,ioos:station:wmo:42044:1,2010-03-26T02:30:00Z,26.1914,-97.0507,1016.49,11111222 
TABS,ioos:station:wmo:42044:1,2010-03-26T03:00:00Z,26.1914,-97.0507,1016.32,11111222 
TABS,ioos:station:wmo:42044:1,2010-03-26T03:30:00Z,26.1914,-97.0507,1016.11,11111222 
TABS,ioos:station:wmo:42044:1,2010-03-26T04:00:00Z,26.1914,-97.0507,1015.4,11111222 
TABS,ioos:station:wmo:42044:1,2010-03-26T04:30:00Z,26.1914,-97.0507,1014.28,11111222 
TABS,ioos:station:wmo:42044:1,2010-03-26T05:00:00Z,26.1914,-97.0507,1013.67,11111222 
TABS,ioos:station:wmo:42044:1,2010-03-26T05:30:00Z,26.1914,-97.0507,1012.83,11111222 
TABS,ioos:station:wmo:42044:1,2010-03-26T06:00:00Z,26.1914,-97.0507,1016.1,11111222 
TABS,ioos:station:wmo:42044:1,2010-03-26T06:30:00Z,26.1914,-97.0507,1017.12,11111222 
TABS,ioos:station:wmo:42044:1,2010-03-26T07:00:00Z,26.1914,-97.0507,1017.02,11111222 
TABS,ioos:station:wmo:42044:1,2010-03-26T07:30:00Z,26.1914,-97.0507,1015.83,11111222 
TABS,ioos:station:wmo:42044:1,2010-03-26T08:00:00Z,26.1914,-97.0507,1015.8,11111222 
TABS,ioos:station:wmo:42044:1,2010-03-26T08:30:00Z,26.1914,-97.0507,1016.07,11111222 
TABS,ioos:station:wmo:42044:1,2010-03-26T09:00:00Z,26.1914,-97.0507,1016.42,11111222 
TABS,ioos:station:wmo:42044:1,2010-03-26T09:30:00Z,26.1914,-97.0507,1016.18,11111222 
TABS,ioos:station:wmo:42044:1,2010-03-26T10:00:00Z,26.1914,-97.0507,1015.78,11111222 
TABS,ioos:station:wmo:42044:1,2010-03-26T10:30:00Z,26.1914,-97.0507,1015.38,11111222 
TABS,ioos:station:wmo:42044:1,2010-03-26T11:00:00Z,26.1914,-97.0507,1014.95,11111222 
TABS,ioos:station:wmo:42044:1,2010-03-26T11:30:00Z,26.1914,-97.0507,1014.73,11111222 
TABS,ioos:station:wmo:42044:1,2010-03-26T12:00:00Z,26.1914,-97.0507,1014.91,11111222 
TABS,ioos:station:wmo:42044:1,2010-03-26T12:30:00Z,26.1914,-97.0507,1016.63,11111222 
TABS,ioos:station:wmo:42044:1,2010-03-26T13:00:00Z,26.1914,-97.0507,1024.76,11111222 
TABS,ioos:station:wmo:42044:1,2010-03-26T13:30:00Z,26.1914,-97.0507,1023.98,11111222 
TABS,ioos:station:wmo:42044:1,2010-03-26T14:00:00Z,26.1914,-97.0507,1022.34,11111222 
TABS,ioos:station:wmo:42044:1,2010-03-26T14:30:00Z,26.1914,-97.0507,1022.82,11111222 
TABS,ioos:station:wmo:42044:1,2010-03-26T15:00:00Z,26.1914,-97.0507,1023.19,11111222 
TABS,ioos:station:wmo:42044:1,2010-03-26T15:30:00Z,26.1914,-97.0507,1021.93,11111222 
TABS,ioos:station:wmo:42044:1,2010-03-26T16:00:00Z,26.1914,-97.0507,1022.07,11111222 
TABS,ioos:station:wmo:42044:1,2010-03-26T16:30:00Z,26.1914,-97.0507,1019.02,11111222 
TABS,ioos:station:wmo:42044:1,2010-03-26T17:00:00Z,26.1914,-97.0507,1019.57,11111222 
TABS,ioos:station:wmo:42044:1,2010-03-26T17:30:00Z,26.1914,-97.0507,1019.13,11111222 
TABS,ioos:station:wmo:42044:1,2010-03-26T18:00:00Z,26.1914,-97.0507,1017.31,11111222 
TABS,ioos:station:wmo:42044:1,2010-03-26T18:30:00Z,26.1914,-97.0507,1016.92,11111222 
TABS,ioos:station:wmo:42044:1,2010-03-26T19:00:00Z,26.1914,-97.0507,1016.36,11111222 
TABS,ioos:station:wmo:42044:1,2010-03-26T19:30:00Z,26.1914,-97.0507,1015.83,11111222 
TABS,ioos:station:wmo:42044:1,2010-03-26T20:00:00Z,26.1914,-97.0507,1015.33,11111222 
TABS,ioos:station:wmo:42044:1,2010-03-26T20:30:00Z,26.1914,-97.0507,1014.59,11111222 
TABS,ioos:station:wmo:42044:1,2010-03-26T21:00:00Z,26.1914,-97.0507,1014.09,11111222 
TABS,ioos:station:wmo:42044:1,2010-03-26T21:30:00Z,26.1914,-97.0507,1013.81,11111222 
TABS,ioos:station:wmo:42044:1,2010-03-26T22:00:00Z,26.1914,-97.0507,1013.42,11111222 
TABS,ioos:station:wmo:42044:1,2010-03-26T22:30:00Z,26.1914,-97.0507,1012.93,11111222 
TABS,ioos:station:wmo:42044:1,2010-03-26T23:00:00Z,26.1914,-97.0507,1012.91,11111222 
TABS,ioos:station:wmo:42044:1,2010-03-26T23:30:00Z,26.1914,-97.0507,1012.71,11111222 
TABS,ioos:station:wmo:42044:1,2010-03-27T00:00:00Z,26.1914,-97.0507,1012.51,11111222 
TABS,ioos:station:wmo:42044:1,2010-03-27T00:30:00Z,26.1914,-97.0507,1007.09,11111222 
TABS,ioos:station:wmo:42044:1,2010-03-27T01:00:00Z,26.1914,-97.0507,1004.65,11111222 
TABS,ioos:station:wmo:42044:1,2010-03-27T01:30:00Z,26.1914,-97.0507,1004.54,11111222 
TABS,ioos:station:wmo:42044:1,2010-03-27T02:00:00Z,26.1914,-97.0507,1004.71,11111222 
TABS,ioos:station:wmo:42044:1,2010-03-27T02:30:00Z,26.1914,-97.0507,1005.11,11111222 
TABS,ioos:station:wmo:42044:1,2010-03-27T03:00:00Z,26.1914,-97.0507,1005.46,11111222 
TABS,ioos:station:wmo:42044:1,2010-03-27T03:30:00Z,26.1914,-97.0507,1005.62,11111222 
TABS,ioos:station:wmo:42044:1,2010-03-27T04:00:00Z,26.1914,-97.0507,1006.05,11111222 
TABS,ioos:station:wmo:42044:1,2010-03-27T04:30:00Z,26.1914,-97.0507,1006.23,11111222 
TABS,ioos:station:wmo:42044:1,2010-03-27T05:00:00Z,26.1914,-97.0507,1006.18,11111222 
TABS,ioos:station:wmo:42044:1,2010-03-27T05:30:00Z,26.1914,-97.0507,1006.27,11111222 
TABS,ioos:station:wmo:42044:1,2010-03-27T06:00:00Z,26.1914,-97.0507,1006.52,11111222 
TABS,ioos:station:wmo:42044:1,2010-03-27T06:30:00Z,26.1914,-97.0507,1006.78,11111222 
TABS,ioos:station:wmo:42044:1,2010-03-27T07:00:00Z,26.1914,-97.0507,1006.9,11111222 
TABS,ioos:station:wmo:42044:1,2010-03-27T07:30:00Z,26.1914,-97.0507,1006.94,11111222 
TABS,ioos:station:wmo:42044:1,2010-03-27T08:00:00Z,26.1914,-97.0507,1007.3,11111222 
TABS,ioos:station:wmo:42044:1,2010-03-27T08:30:00Z,26.1914,-97.0507,1007.21,11111222 
TABS,ioos:station:wmo:42044:1,2010-03-27T09:00:00Z,26.1914,-97.0507,1007.46,11111222 
TABS,ioos:station:wmo:42044:1,2010-03-27T09:30:00Z,26.1914,-97.0507,1007.65,11111222 
TABS,ioos:station:wmo:42044:1,2010-03-27T10:00:00Z,26.1914,-97.0507,1007.67,11111222 
TABS,ioos:station:wmo:42044:1,2010-03-27T10:30:00Z,26.1914,-97.0507,1007.74,11111222 
TABS,ioos:station:wmo:42044:1,2010-03-27T11:00:00Z,26.1914,-97.0507,1008.0,11111222 
TABS,ioos:station:wmo:42044:1,2010-03-27T11:30:00Z,26.1914,-97.0507,1008.35,11111222 
TABS,ioos:station:wmo:42044:1,2010-03-27T12:00:00Z,26.1914,-97.0507,1008.63,11111222 
TABS,ioos:station:wmo:42044:1,2010-03-27T12:30:00Z,26.1914,-97.0507,1009.24,11111222 
TABS,ioos:station:wmo:42044:1,2010-03-27T13:00:00Z,26.1914,-97.0507,1011.25,11111222 
TABS,ioos:station:wmo:42044:1,2010-03-27T13:30:00Z,26.1914,-97.0507,1013.36,11111222 
TABS,ioos:station:wmo:42044:1,2010-03-27T14:00:00Z,26.1914,-97.0507,1014.87,11111222 
TABS,ioos:station:wmo:42044:1,2010-03-27T14:30:00Z,26.1914,-97.0507,1015.89,11111222 
TABS,ioos:station:wmo:42044:1,2010-03-27T15:00:00Z,26.1914,-97.0507,1015.7,11111222 
TABS,ioos:station:wmo:42044:1,2010-03-27T15:30:00Z,26.1914,-97.0507,1016.02,11111222 
TABS,ioos:station:wmo:42044:1,2010-03-27T16:00:00Z,26.1914,-97.0507,1016.21,11111222 
TABS,ioos:station:wmo:42044:1,2010-03-27T16:30:00Z,26.1914,-97.0507,1017.16,11111222 
TABS,ioos:station:wmo:42044:1,2010-03-27T17:00:00Z,26.1914,-97.0507,1017.69,11111222 
TABS,ioos:station:wmo:42044:1,2010-03-27T17:30:00Z,26.1914,-97.0507,1018.67,11111222 
TABS,ioos:station:wmo:42044:1,2010-03-27T18:00:00Z,26.1914,-97.0507,1020.6,11111222 
TABS,ioos:station:wmo:42044:1,2010-03-27T18:30:00Z,26.1914,-97.0507,1024.57,11111222 
TABS,ioos:station:wmo:42044:1,2010-03-27T19:00:00Z,26.1914,-97.0507,1027.52,11111222 
TABS,ioos:station:wmo:42044:1,2010-03-27T19:30:00Z,26.1914,-97.0507,1029.63,11111222 
TABS,ioos:station:wmo:42044:1,2010-03-27T20:00:00Z,26.1914,-97.0507,1030.09,11111222 
TABS,ioos:station:wmo:42044:1,2010-03-27T20:30:00Z,26.1914,-97.0507,1029.83,11111222 
TABS,ioos:station:wmo:42044:1,2010-03-27T21:00:00Z,26.1914,-97.0507,1028.2,11111222 
TABS,ioos:station:wmo:42044:1,2010-03-27T21:30:00Z,26.1914,-97.0507,1028.0,11111222 
TABS,ioos:station:wmo:42044:1,2010-03-27T22:00:00Z,26.1914,-97.0507,1028.24,11111222 
TABS,ioos:station:wmo:42044:1,2010-03-27T22:30:00Z,26.1914,-97.0507,1022.94,11111222 
TABS,ioos:station:wmo:42044:1,2010-03-27T23:00:00Z,26.1914,-97.0507,1026.05,11111222 
TABS,ioos:station:wmo:42044:1,2010-03-27T23:30:00Z,26.1914,-97.0507,1021.5,11111222 
TABS,ioos:station:wmo:42044:1,2010-03-28T00:00:00Z,26.1914,-97.0507,1010.66,11111222 
TABS,ioos:station:wmo:42044:1,2010-03-28T00:30:00Z,26.1914,-97.0507,1001.05,11111222 
TABS,ioos:station:wmo:42044:1,2010-03-28T01:00:00Z,26.1914,-97.0507,997.82,11111222 
TABS,ioos:station:wmo:42044:1,2010-03-28T01:30:00Z,26.1914,-97.0507,996.61,11111222 
TABS,ioos:station:wmo:42044:1,2010-03-28T02:00:00Z,26.1914,-97.0507,996.63,11111222 
TABS,ioos:station:wmo:42044:1,2010-03-28T02:30:00Z,26.1914,-97.0507,996.64,11111222 
TABS,ioos:station:wmo:42044:1,2010-03-28T03:00:00Z,26.1914,-97.0507,996.12,11111222 
TABS,ioos:station:wmo:42044:1,2010-03-28T03:30:00Z,26.1914,-97.0507,995.23,11111222 
TABS,ioos:station:wmo:42044:1,2010-03-28T04:00:00Z,26.1914,-97.0507,994.91,11111222 
TABS,ioos:station:wmo:42044:1,2010-03-28T04:30:00Z,26.1914,-97.0507,994.16,11111222 
TABS,ioos:station:wmo:42044:1,2010-03-28T05:00:00Z,26.1914,-97.0507,996.52,11111222 
TABS,ioos:station:wmo:42044:1,2010-03-28T05:30:00Z,26.1914,-97.0507,995.95,11111222 
TABS,ioos:station:wmo:42044:1,2010-03-28T06:00:00Z,26.1914,-97.0507,995.8,11111222 
TABS,ioos:station:wmo:42044:1,2010-03-28T06:30:00Z,26.1914,-97.0507,995.36,11111222 
TABS,ioos:station:wmo:42044:1,2010-03-28T07:00:00Z,26.1914,-97.0507,995.81,11111222 
TABS,ioos:station:wmo:42044:1,2010-03-28T07:30:00Z,26.1914,-97.0507,995.92,11111222 
TABS,ioos:station:wmo:42044:1,2010-03-28T08:00:00Z,26.1914,-97.0507,996.25,11111222 
TABS,ioos:station:wmo:42044:1,2010-03-28T08:30:00Z,26.1914,-97.0507,996.78,11111222 
TABS,ioos:station:wmo:42044:1,2010-03-28T09:00:00Z,26.1914,-97.0507,996.81,11111222 
TABS,ioos:station:wmo:42044:1,2010-03-28T09:30:00Z,26.1914,-97.0507,997.28,11111222 
TABS,ioos:station:wmo:42044:1,2010-03-28T10:00:00Z,26.1914,-97.0507,997.34,11111222 
TABS,ioos:station:wmo:42044:1,2010-03-28T10:30:00Z,26.1914,-97.0507,997.2,11111222 
TABS,ioos:station:wmo:42044:1,2010-03-28T11:00:00Z,26.1914,-97.0507,997.51,11111222 
TABS,ioos:station:wmo:42044:1,2010-03-28T11:30:00Z,26.1914,-97.0507,997.84,11111222 
TABS,ioos:station:wmo:42044:1,2010-03-28T12:00:00Z,26.1914,-97.0507,999.62,11111222 
TABS,ioos:station:wmo:42044:1,2010-03-28T12:30:00Z,26.1914,-97.0507,1000.03,11111222 
TABS,ioos:station:wmo:42044:1,2010-03-28T13:00:00Z,26.1914,-97.0507,1007.34,11111222 
TABS,ioos:station:wmo:42044:1,2010-03-28T13:30:00Z,26.1914,-97.0507,1016.22,11111222 
TABS,ioos:station:wmo:42044:1,2010-03-28T14:00:00Z,26.1914,-97.0507,1021.42,11111222 
TABS,ioos:station:wmo:42044:1,2010-03-28T14:30:00Z,26.1914,-97.0507,1016.34,11111222 
TABS,ioos:station:wmo:42044:1,2010-03-28T15:00:00Z,26.1914,-97.0507,1022.39,11111222 
TABS,ioos:station:wmo:42044:1,2010-03-28T15:30:00Z,26.1914,-97.0507,1023.11,11111222 
TABS,ioos:station:wmo:42044:1,2010-03-28T16:00:00Z,26.1914,-97.0507,1014.74,11111222 
TABS,ioos:station:wmo:42044:1,2010-03-28T16:30:00Z,26.1914,-97.0507,1020.78,11111222 
TABS,ioos:station:wmo:42044:1,2010-03-28T17:00:00Z,26.1914,-97.0507,1019.51,11111222 
TABS,ioos:station:wmo:42044:1,2010-03-28T17:30:00Z,26.1914,-97.0507,1014.66,11111222 
TABS,ioos:station:wmo:42044:1,2010-03-28T18:00:00Z,26.1914,-97.0507,1011.16,11111222 
TABS,ioos:station:wmo:42044:1,2010-03-28T18:30:00Z,26.1914,-97.0507,1007.26,11111222 
TABS,ioos:station:wmo:42044:1,2010-03-28T19:00:00Z,26.1914,-97.0507,1005.27,11111222 
TABS,ioos:station:wmo:42044:1,2010-03-28T19:30:00Z,26.1914,-97.0507,1005.13,11111222 
TABS,ioos:station:wmo:42044:1,2010-03-28T20:00:00Z,26.1914,-97.0507,1008.18,11111222 
TABS,ioos:station:wmo:42044:1,2010-03-28T20:30:00Z,26.1914,-97.0507,1011.75,11111222 
TABS,ioos:station:wmo:42044:1,2010-03-28T21:00:00Z,26.1914,-97.0507,1009.7,11111222 
TABS,ioos:station:wmo:42044:1,2010-03-28T21:30:00Z,26.1914,-97.0507,1010.17,11111222 
TABS,ioos:station:wmo:42044:1,2010-03-28T22:00:00Z,26.1914,-97.0507,1011.98,11111222 
TABS,ioos:station:wmo:42044:1,2010-03-28T22:30:00Z,26.1914,-97.0507,1013.1,11111222 
TABS,ioos:station:wmo:42044:1,2010-03-28T23:00:00Z,26.1914,-97.0507,1011.86,11111222 
TABS,ioos:station:wmo:42044:1,2010-03-28T23:30:00Z,26.1914,-97.0507,1010.52,11111222 
TABS,ioos:station:wmo:42044:1,2010-03-29T00:00:00Z,26.1914,-97.0507,1009.89,11111222 
TABS,ioos:station:wmo:42044:1,2010-03-29T00:30:00Z,26.1914,-97.0507,1005.06,11111222 
TABS,ioos:station:wmo:42044:1,2010-03-29T01:00:00Z,26.1914,-97.0507,1004.05,11111222 
TABS,ioos:station:wmo:42044:1,2010-03-29T01:30:00Z,26.1914,-97.0507,1003.45,11111222 
TABS,ioos:station:wmo:42044:1,2010-03-29T02:00:00Z,26.1914,-97.0507,1003.96,11111222 
TABS,ioos:station:wmo:42044:1,2010-03-29T02:30:00Z,26.1914,-97.0507,1003.02,11111222 
TABS,ioos:station:wmo:42044:1,2010-03-29T03:00:00Z,26.1914,-97.0507,1002.01,11111222 
TABS,ioos:station:wmo:42044:1,2010-03-29T03:30:00Z,26.1914,-97.0507,1001.27,11111222 
TABS,ioos:station:wmo:42044:1,2010-03-29T04:00:00Z,26.1914,-97.0507,1001.15,11111222 
TABS,ioos:station:wmo:42044:1,2010-03-29T04:30:00Z,26.1914,-97.0507,1000.73,11111222 
TABS,ioos:station:wmo:42044:1,2010-03-29T05:00:00Z,26.1914,-97.0507,1000.18,11111222 
TABS,ioos:station:wmo:42044:1,2010-03-29T05:30:00Z,26.1914,-97.0507,1000.29,11111222 
TABS,ioos:station:wmo:42044:1,2010-03-29T06:00:00Z,26.1914,-97.0507,1000.03,11111222 
TABS,ioos:station:wmo:42044:1,2010-03-29T06:30:00Z,26.1914,-97.0507,1000.62,11111222 
TABS,ioos:station:wmo:42044:1,2010-03-29T07:00:00Z,26.1914,-97.0507,1000.71,11111222 
TABS,ioos:station:wmo:42044:1,2010-03-29T07:30:00Z,26.1914,-97.0507,1000.18,11111222 
TABS,ioos:station:wmo:42044:1,2010-03-29T08:00:00Z,26.1914,-97.0507,999.47,11111222 
TABS,ioos:station:wmo:42044:1,2010-03-29T08:30:00Z,26.1914,-97.0507,1000.19,11111222 
TABS,ioos:station:wmo:42044:1,2010-03-29T09:00:00Z,26.1914,-97.0507,1000.65,11111222 
TABS,ioos:station:wmo:42044:1,2010-03-29T09:30:00Z,26.1914,-97.0507,1001.43,11111222 
TABS,ioos:station:wmo:42044:1,2010-03-29T10:00:00Z,26.1914,-97.0507,1000.98,11111222 
TABS,ioos:station:wmo:42044:1,2010-03-29T10:30:00Z,26.1914,-97.0507,1000.07,11111222 
TABS,ioos:station:wmo:42044:1,2010-03-29T11:00:00Z,26.1914,-97.0507,1001.97,11111222 
TABS,ioos:station:wmo:42044:1,2010-03-29T11:30:00Z,26.1914,-97.0507,1001.24,11111222 
TABS,ioos:station:wmo:42044:1,2010-03-29T12:00:00Z,26.1914,-97.0507,1000.76,11111222 
TABS,ioos:station:wmo:42044:1,2010-03-29T12:30:00Z,26.1914,-97.0507,1003.3,11111222 
TABS,ioos:station:wmo:42044:1,2010-03-29T13:00:00Z,26.1914,-97.0507,1015.67,11111222 
TABS,ioos:station:wmo:42044:1,2010-03-29T13:30:00Z,26.1914,-97.0507,1027.04,11111222 
TABS,ioos:station:wmo:42044:1,2010-03-29T14:00:00Z,26.1914,-97.0507,1032.04,11111222 
TABS,ioos:station:wmo:42044:1,2010-03-29T14:30:00Z,26.1914,-97.0507,1035.72,11111222 
TABS,ioos:station:wmo:42044:1,2010-03-29T15:00:00Z,26.1914,-97.0507,1038.36,11111222 
TABS,ioos:station:wmo:42044:1,2010-03-29T15:30:00Z,26.1914,-97.0507,1036.42,11111222 
TABS,ioos:station:wmo:42044:1,2010-03-29T16:00:00Z,26.1914,-97.0507,1036.65,11111222 
TABS,ioos:station:wmo:42044:1,2010-03-29T16:30:00Z,26.1914,-97.0507,1032.55,11111222 
TABS,ioos:station:wmo:42044:1,2010-03-29T17:00:00Z,26.1914,-97.0507,1026.55,11111222 
TABS,ioos:station:wmo:42044:1,2010-03-29T17:30:00Z,26.1914,-97.0507,1026.86,11111222 
TABS,ioos:station:wmo:42044:1,2010-03-29T18:00:00Z,26.1914,-97.0507,1024.03,11111222 
TABS,ioos:station:wmo:42044:1,2010-03-29T18:30:00Z,26.1914,-97.0507,1021.71,11111222 
TABS,ioos:station:wmo:42044:1,2010-03-29T19:00:00Z,26.1914,-97.0507,1019.87,11111222 
TABS,ioos:station:wmo:42044:1,2010-03-29T19:30:00Z,26.1914,-97.0507,1019.13,11111222 
TABS,ioos:station:wmo:42044:1,2010-03-29T20:00:00Z,26.1914,-97.0507,1019.41,11111222 
TABS,ioos:station:wmo:42044:1,2010-03-29T20:30:00Z,26.1914,-97.0507,1019.82,11111222 
TABS,ioos:station:wmo:42044:1,2010-03-29T21:00:00Z,26.1914,-97.0507,1020.4,11111222 
TABS,ioos:station:wmo:42044:1,2010-03-29T21:30:00Z,26.1914,-97.0507,1020.34,11111222 
TABS,ioos:station:wmo:42044:1,2010-03-29T22:00:00Z,26.1914,-97.0507,1019.88,11111222 
TABS,ioos:station:wmo:42044:1,2010-03-29T22:30:00Z,26.1914,-97.0507,1018.84,11111222 
TABS,ioos:station:wmo:42044:1,2010-03-29T23:00:00Z,26.1914,-97.0507,1016.33,11111222 
TABS,ioos:station:wmo:42044:1,2010-03-29T23:30:00Z,26.1914,-97.0507,1016.25,11111222 
TABS,ioos:station:wmo:42044:1,2010-03-30T00:00:00Z,26.1914,-97.0507,1016.08,11111222 
TABS,ioos:station:wmo:42044:1,2010-03-30T00:30:00Z,26.1914,-97.0507,1016.06,11111222 
TABS,ioos:station:wmo:42044:1,2010-03-30T01:00:00Z,26.1914,-97.0507,1016.22,11111222 
TABS,ioos:station:wmo:42044:1,2010-03-30T01:30:00Z,26.1914,-97.0507,1016.48,11111222 
TABS,ioos:station:wmo:42044:1,2010-03-30T02:00:00Z,26.1914,-97.0507,1016.64,11111222 
TABS,ioos:station:wmo:42044:1,2010-03-30T02:30:00Z,26.1914,-97.0507,1017.09,11111222 
TABS,ioos:station:wmo:42044:1,2010-03-30T03:00:00Z,26.1914,-97.0507,1017.31,11111222 
TABS,ioos:station:wmo:42044:1,2010-03-30T03:30:00Z,26.1914,-97.0507,1017.32,11111222 
TABS,ioos:station:wmo:42044:1,2010-03-30T04:00:00Z,26.1914,-97.0507,1017.34,11111222 
TABS,ioos:station:wmo:42044:1,2010-03-30T04:30:00Z,26.1914,-97.0507,1017.19,11111222 
TABS,ioos:station:wmo:42044:1,2010-03-30T05:00:00Z,26.1914,-97.0507,1017.16,11111222 
TABS,ioos:station:wmo:42044:1,2010-03-30T05:30:00Z,26.1914,-97.0507,1017.0,11111222 
TABS,ioos:station:wmo:42044:1,2010-03-30T06:00:00Z,26.1914,-97.0507,1016.98,11111222 
TABS,ioos:station:wmo:42044:1,2010-03-30T06:30:00Z,26.1914,-97.0507,1017.11,11111222 
TABS,ioos:station:wmo:42044:1,2010-03-30T07:00:00Z,26.1914,-97.0507,1016.95,11111222 
TABS,ioos:station:wmo:42044:1,2010-03-30T07:30:00Z,26.1914,-97.0507,1016.73,11111222 
TABS,ioos:station:wmo:42044:1,2010-03-30T08:00:00Z,26.1914,-97.0507,1016.46,11111222 
TABS,ioos:station:wmo:42044:1,2010-03-30T08:30:00Z,26.1914,-97.0507,1016.15,11111222 
TABS,ioos:station:wmo:42044:1,2010-03-30T09:00:00Z,26.1914,-97.0507,1015.83,11111222 
TABS,ioos:station:wmo:42044:1,2010-03-30T09:30:00Z,26.1914,-97.0507,1015.43,11111222 
TABS,ioos:station:wmo:42044:1,2010-03-30T10:00:00Z,26.1914,-97.0507,1015.59,11111222 
TABS,ioos:station:wmo:42044:1,2010-03-30T10:30:00Z,26.1914,-97.0507,1015.75,11111222 
TABS,ioos:station:wmo:42044:1,2010-03-30T11:00:00Z,26.1914,-97.0507,1015.9,11111222 
TABS,ioos:station:wmo:42044:1,2010-03-30T11:30:00Z,26.1914,-97.0507,1016.17,11111222 
TABS,ioos:station:wmo:42044:1,2010-03-30T12:00:00Z,26.1914,-97.0507,1016.11,11111222 
TABS,ioos:station:wmo:42044:1,2010-03-30T12:30:00Z,26.1914,-97.0507,1016.21,11111222 
TABS,ioos:station:wmo:42044:1,2010-03-30T13:00:00Z,26.1914,-97.0507,1016.46,11111222 
TABS,ioos:station:wmo:42044:1,2010-03-30T13:30:00Z,26.1914,-97.0507,1016.73,11111222 
TABS,ioos:station:wmo:42044:1,2010-03-30T14:00:00Z,26.1914,-97.0507,1016.91,11111222 
TABS,ioos:station:wmo:42044:1,2010-03-30T14:30:00Z,26.1914,-97.0507,1017.3,11111222 
TABS,ioos:station:wmo:42044:1,2010-03-30T15:00:00Z,26.1914,-97.0507,1017.46,11111222 
TABS,ioos:station:wmo:42044:1,2010-03-30T15:30:00Z,26.1914,-97.0507,1017.84,11111222 
TABS,ioos:station:wmo:42044:1,2010-03-30T16:00:00Z,26.1914,-97.0507,1017.84,11111222 
TABS,ioos:station:wmo:42044:1,2010-03-30T16:30:00Z,26.1914,-97.0507,1017.86,11111222 
TABS,ioos:station:wmo:42044:1,2010-03-30T17:00:00Z,26.1914,-97.0507,1017.71,11111222 
TABS,ioos:station:wmo:42044:1,2010-03-30T17:30:00Z,26.1914,-97.0507,1017.42,11111222 
TABS,ioos:station:wmo:42044:1,2010-03-30T18:00:00Z,26.1914,-97.0507,1017.21,11111222 
TABS,ioos:station:wmo:42044:1,2010-03-30T18:30:00Z,26.1914,-97.0507,1017.05,11111222 
TABS,ioos:station:wmo:42044:1,2010-03-30T19:00:00Z,26.1914,-97.0507,1016.59,11111222 
TABS,ioos:station:wmo:42044:1,2010-03-30T19:30:00Z,26.1914,-97.0507,1018.74,11111222 
TABS,ioos:station:wmo:42044:1,2010-03-30T20:00:00Z,26.1914,-97.0507,1020.53,11111222 
TABS,ioos:station:wmo:42044:1,2010-03-30T20:30:00Z,26.1914,-97.0507,1023.05,11111222 
TABS,ioos:station:wmo:42044:1,2010-03-30T21:00:00Z,26.1914,-97.0507,1015.56,11111222 
TABS,ioos:station:wmo:42044:1,2010-03-30T21:30:00Z,26.1914,-97.0507,1016.01,11111222 
TABS,ioos:station:wmo:42044:1,2010-03-30T22:00:00Z,26.1914,-97.0507,1016.68,11111222 
TABS,ioos:station:wmo:42044:1,2010-03-30T22:30:00Z,26.1914,-97.0507,1015.79,11111222 
TABS,ioos:station:wmo:42044:1,2010-03-30T23:00:00Z,26.1914,-97.0507,1014.2,11111222 
TABS,ioos:station:wmo:42044:1,2010-03-30T23:30:00Z,26.1914,-97.0507,1011.07,11111222 
TABS,ioos:station:wmo:42044:1,2010-03-31T00:00:00Z,26.1914,-97.0507,1003.48,11111222 
TABS,ioos:station:wmo:42044:1,2010-03-31T00:30:00Z,26.1914,-97.0507,994.93,11111222 
TABS,ioos:station:wmo:42044:1,2010-03-31T01:00:00Z,26.1914,-97.0507,995.6,11111222 
TABS,ioos:station:wmo:42044:1,2010-03-31T01:30:00Z,26.1914,-97.0507,995.28,11111222 